Location: *
(1.3500°S, 147.5000°W)
Time: 00:23:07
(UTC+00:00)

Cosmos 1602 Rocket - Pass Details

Date: 07 April 2020
Orbit: 603 x 634 km, 82.5° (Epoch: 06 June)

Event Time Altitude Azimuth Distance (km) Brightness Sun altitude
Rises 05:29:08 0° 351° (N) 2,866 7.2 -24.2°
Reaches altitude 10° 05:31:22 10° 348° (NNW) 1,960 6.3 -24.8°
Maximum altitude 05:35:39 65° 267° (W) 671 3.8 -25.9°
Enters shadow 05:36:21 55° 219° (SW) 735 4.0 -26.0°
